Voltar ao catálogo

GEOSKAN-2

AtivoRádio AmadorSSO
NORAD 64890·PAYLOAD·🇷🇺 Russia
Este nome de satélite ainda não foi confirmado por fontes oficiais.

Lançado Jul 25, 2025 de Vostochny Cosmodrome

Loading…

Próximas Passagens (próximas 24 horas)

TLE

AtualizadoSource: Space-Track

Época: Sep 14, 2026, 14:28 UTC

1 64890U 25155Q   26257.60342090  .00009758  00000-0  31143-3 0  9995
2 64890  97.4661 227.0756 0006120 187.5397 172.5754 15.32686624 94478

Acompanhe GEOSKAN-2 em tempo real com AllMySat

Download on the App Store